Odell, IL

7:44 AM CST on December 03, 2016 (GMT -0600)
Pontiac Municipal

Weather History for KPNT - February, 2014

Change the Weather History Date:

Friday, February 21, 2014

  Actual Average Record
Temperature  
Mean Temperature 34 °F -  
Max Temperature 39 °F 41 °F 67 °F (1930)
Min Temperature 30 °F 23 °F -6 °F (1963)
Degree Days  
Heating Degree Days 30    
Moisture  
Dew Point 26 °F    
Average Humidity 71    
Maximum Humidity 93    
Minimum Humidity 52    
Precipitation  
Precipitation 0.00 in - - ()
Sea Level Pressure  
Sea Level Pressure 29.71 in    
Wind  
Wind Speed 22 mph (WSW)    
Max Wind Speed 34 mph    
Max Gust Speed 44 mph    
Visibility 9 miles    
Events Snow    
Averages and records for this station are not official NWS values.
T = Trace of Precipitation, MM = Missing Value Source: NWS Daily Summary

Daily Weather History Graph

Daily Weather History Graph

Search for Another Location

Airport or City:

Trip Planner

Search our weather history database for the weather conditions in past years. The results will help you decide how hot, cold, wet, or windy it might be!

Date:

Astronomy

Feb. 21, 2014 Rise Set
Actual Time 6:40 AM CST 5:36 PM CST
Civil Twilight 6:12 AM CST 6:04 PM CST
Nautical Twilight 5:40 AM CST 6:36 PM CST
Astronomical Twilight 5:08 AM CST 7:07 PM CST
Moon No Moon Rise 10:01 AM CST (2/21)
Length of Visible Light 11h 51m
Length of Day
10h 55m
Waning Gibbous, 60% of the Moon is Illuminated
Feb 21
Waning Gibbous
Feb 22
Last Quarter
Mar 1
New
Mar 8
First Quarter
Mar 16
Full

Hourly Weather History & Observations

Time (CST) Temp. Windchill Dew Point Humidity Pressure Visibility Wind Dir Wind Speed Gust Speed Precip Events Conditions
12:15 AM 37.4 °F 26.9 °F 32.0 °F 81% 29.47 in 10.0 mi WSW 20.7 mph 26.5 mph N/A   Overcast
12:35 AM 37.4 °F 27.2 °F 30.2 °F 75% 29.47 in 10.0 mi SW 19.6 mph 27.6 mph N/A   Overcast
12:55 AM 37.4 °F 25.2 °F 30.2 °F 75% 29.48 in 10.0 mi WSW 28.8 mph 34.5 mph N/A   Overcast
1:15 AM 37.4 °F 26.6 °F 30.2 °F 75% 29.50 in 10.0 mi WSW 21.9 mph 29.9 mph N/A   Overcast
1:35 AM 37.4 °F 26.1 °F 30.2 °F 75% 29.51 in 10.0 mi WSW 24.2 mph 27.6 mph N/A   Overcast
1:55 AM 37.4 °F 25.2 °F 28.4 °F 70% 29.52 in 10.0 mi WSW 28.8 mph 35.7 mph N/A   Overcast
2:15 AM 37.4 °F 25.6 °F 28.4 °F 70% 29.53 in 10.0 mi SW 26.5 mph 31.1 mph N/A   Overcast
2:35 AM 37.4 °F 25.9 °F 28.4 °F 70% 29.54 in 10.0 mi WSW 25.3 mph 33.4 mph N/A   Overcast
2:55 AM 37.4 °F 26.1 °F 28.4 °F 70% 29.53 in 10.0 mi WSW 24.2 mph 29.9 mph N/A   Overcast
3:15 AM 35.6 °F 24.2 °F 28.4 °F 75% 29.54 in 10.0 mi WSW 21.9 mph 28.8 mph N/A   Overcast
3:35 AM 35.6 °F 23.4 °F 28.4 °F 75% 29.54 in 10.0 mi WSW 25.3 mph 29.9 mph N/A   Overcast
3:55 AM 33.8 °F 21.6 °F 30.2 °F 87% 29.56 in 4.0 mi WSW 23.0 mph 36.8 mph N/A Snow Light Snow
4:15 AM 33.8 °F 20.5 °F 30.2 °F 87% 29.56 in 7.0 mi WSW 27.6 mph 34.5 mph N/A   Overcast
4:35 AM 33.8 °F 21.0 °F 30.2 °F 87% 29.58 in 7.0 mi WSW 25.3 mph 33.4 mph N/A   Overcast
4:55 AM 33.8 °F 21.0 °F 30.2 °F 87% 29.59 in 3.0 mi WSW 25.3 mph 29.9 mph N/A Snow Light Snow
5:15 AM 33.8 °F 22.2 °F 30.2 °F 87% 29.60 in 2.5 mi WSW 20.7 mph 28.8 mph N/A Snow Light Snow
5:35 AM 32.0 °F 18.9 °F 30.2 °F 93% 29.61 in 5.0 mi WSW 24.2 mph 31.1 mph N/A   Overcast
5:55 AM 32.0 °F 18.1 °F 28.4 °F 87% 29.61 in 7.0 mi WSW 27.6 mph 35.7 mph N/A   Overcast
6:15 AM 32.0 °F 18.4 °F 28.4 °F 87% 29.62 in 7.0 mi West 26.5 mph 35.7 mph N/A   Overcast
6:35 AM 32.0 °F 18.1 °F 28.4 °F 87% 29.62 in 7.0 mi WSW 27.6 mph 32.2 mph N/A   Overcast
6:55 AM 32.0 °F 17.2 °F 26.6 °F 80% 29.63 in 10.0 mi WSW 32.2 mph 39.1 mph N/A   Overcast
7:15 AM 32.0 °F 17.9 °F 24.8 °F 75% 29.64 in 10.0 mi WSW 28.8 mph 36.8 mph N/A   Overcast
7:35 AM 32.0 °F 17.4 °F 24.8 °F 75% 29.65 in 10.0 mi West 31.1 mph 42.6 mph N/A   Overcast
7:55 AM 32.0 °F 17.9 °F 24.8 °F 75% 29.65 in 10.0 mi WSW 28.8 mph 36.8 mph N/A   Overcast
8:15 AM 32.0 °F 17.4 °F 23.0 °F 69% 29.66 in 10.0 mi West 31.1 mph 43.7 mph N/A   Overcast
8:35 AM 30.2 °F 15.7 °F 23.0 °F 75% 29.67 in 10.0 mi West 27.6 mph 36.8 mph N/A   Scattered Clouds
8:55 AM 32.0 °F 17.6 °F 24.8 °F 75% 29.67 in 10.0 mi West 29.9 mph 35.7 mph N/A   Scattered Clouds
9:15 AM 30.2 °F 14.7 °F 21.2 °F 69% 29.68 in 10.0 mi West 32.2 mph 40.3 mph N/A   Scattered Clouds
9:35 AM 30.2 °F 14.9 °F 21.2 °F 69% 29.69 in 10.0 mi WSW 31.1 mph 36.8 mph N/A   Clear
9:55 AM 30.2 °F 14.7 °F 21.2 °F 69% 29.71 in 10.0 mi West 32.2 mph 42.6 mph N/A   Clear
10:15 AM 30.2 °F 14.7 °F 21.2 °F 69% 29.72 in 10.0 mi WSW 32.2 mph 39.1 mph N/A   Clear
10:35 AM 32.0 °F 17.0 °F 21.2 °F 64% 29.72 in 10.0 mi WSW 33.4 mph 42.6 mph N/A   Clear
10:55 AM 32.0 °F 16.7 °F 21.2 °F 64% 29.73 in 10.0 mi WSW 34.5 mph 42.6 mph N/A   Scattered Clouds
11:15 AM 33.8 °F 19.6 °F 21.2 °F 60% 29.74 in 10.0 mi WSW 32.2 mph 39.1 mph N/A   Clear
11:35 AM 33.8 °F 19.4 °F 21.2 °F 60% 29.75 in 10.0 mi WSW 33.4 mph 40.3 mph N/A   Clear
11:55 AM 33.8 °F 20.8 °F 21.2 °F 60% 29.75 in 10.0 mi West 26.5 mph 36.8 mph N/A   Clear
12:15 PM 33.8 °F 20.8 °F 19.4 °F 56% 29.75 in 10.0 mi WSW 26.5 mph 36.8 mph N/A   Clear
12:35 PM 33.8 °F 20.8 °F 19.4 °F 56% 29.75 in 10.0 mi WSW 26.5 mph 33.4 mph N/A   Clear
12:55 PM 33.8 °F 20.8 °F 19.4 °F 56% 29.75 in 10.0 mi West 26.5 mph 33.4 mph N/A   Clear
1:15 PM 35.6 °F 23.7 °F 19.4 °F 52% 29.75 in 10.0 mi West 24.2 mph - N/A   Clear
1:35 PM 35.6 °F 24.0 °F 21.2 °F 56% 29.75 in 10.0 mi WSW 23.0 mph 33.4 mph N/A   Clear
1:55 PM 35.6 °F 25.2 °F 21.2 °F 56% 29.75 in 10.0 mi WSW 18.4 mph 29.9 mph N/A   Clear
2:15 PM 37.4 °F 28.2 °F 23.0 °F 56% 29.75 in 10.0 mi WSW 16.1 mph 27.6 mph N/A   Clear
2:35 PM 37.4 °F 27.5 °F 23.0 °F 56% 29.76 in 10.0 mi WSW 18.4 mph 24.2 mph N/A   Clear
2:55 PM 37.4 °F 26.6 °F 24.8 °F 60% 29.77 in 10.0 mi WSW 21.9 mph 25.3 mph N/A   Clear
3:15 PM 37.4 °F 26.6 °F 24.8 °F 60% 29.77 in 10.0 mi WSW 21.9 mph 26.5 mph N/A   Clear
3:35 PM 39.2 °F 30.2 °F 24.8 °F 56% 29.78 in 10.0 mi WSW 17.3 mph - N/A   Clear
3:55 PM 39.2 °F 29.3 °F 24.8 °F 56% 29.79 in 10.0 mi WSW 20.7 mph - N/A   Clear
4:15 PM 39.2 °F 29.8 °F 24.8 °F 56% 29.79 in 10.0 mi WSW 18.4 mph 24.2 mph N/A   Clear
4:35 PM 37.4 °F 27.8 °F 26.6 °F 65% 29.80 in 10.0 mi WSW 17.3 mph 20.7 mph N/A   Clear
4:55 PM 37.4 °F 28.2 °F 26.6 °F 65% 29.81 in 10.0 mi WSW 16.1 mph - N/A   Clear
5:15 PM 37.4 °F 28.5 °F 26.6 °F 65% 29.81 in 10.0 mi WSW 15.0 mph 23.0 mph N/A   Clear
5:35 PM 37.4 °F 28.9 °F 26.6 °F 65% 29.82 in 10.0 mi WSW 13.8 mph - N/A   Scattered Clouds
5:55 PM 37.4 °F 29.3 °F 26.6 °F 65% 29.83 in 10.0 mi WSW 12.7 mph - N/A   Overcast
6:15 PM 37.4 °F 30.8 °F 26.6 °F 65% 29.84 in 10.0 mi WSW 9.2 mph - N/A   Overcast
6:35 PM 37.4 °F 32.1 °F 26.6 °F 65% 29.84 in 10.0 mi SW 6.9 mph 10.4 mph N/A   Overcast
6:55 PM 37.4 °F 31.4 °F 26.6 °F 65% 29.84 in 10.0 mi SW 8.1 mph - N/A   Overcast
7:15 PM 37.4 °F 33.8 °F 28.4 °F 70% 29.83 in 10.0 mi WSW 4.6 mph - N/A   Overcast
7:35 PM 35.6 °F 30.7 °F 28.4 °F 75% 29.82 in 10.0 mi South 5.8 mph - N/A   Overcast
7:55 PM 35.6 °F 32.8 °F 28.4 °F 75% 29.83 in 10.0 mi West 3.5 mph - N/A   Mostly Cloudy
8:15 PM 35.6 °F - 28.4 °F 75% 29.83 in 10.0 mi Calm Calm - N/A   Mostly Cloudy
8:35 PM 35.6 °F 32.8 °F 30.2 °F 81% 29.83 in 10.0 mi South 3.5 mph - N/A   Mostly Cloudy
8:55 PM 35.6 °F 32.8 °F 28.4 °F 75% 29.83 in 10.0 mi South 3.5 mph - N/A   Mostly Cloudy
9:15 PM 35.6 °F - 28.4 °F 75% 29.84 in 10.0 mi Calm Calm - N/A   Mostly Cloudy
9:35 PM 33.8 °F - 28.4 °F 81% 29.85 in 10.0 mi Calm Calm - N/A   Clear
9:55 PM 35.6 °F - 28.4 °F 75% 29.85 in 10.0 mi Calm Calm - N/A   Clear
10:15 PM 35.6 °F 29.9 °F 26.6 °F 70% 29.85 in 10.0 mi West 6.9 mph - N/A   Clear
10:35 PM 35.6 °F 28.6 °F 26.6 °F 70% 29.84 in 10.0 mi WNW 9.2 mph - N/A   Clear
10:55 PM 33.8 °F 27.0 °F 26.6 °F 75% 29.85 in 10.0 mi WNW 8.1 mph - N/A   Clear
11:15 PM 33.8 °F 27.0 °F 26.6 °F 75% 29.86 in 10.0 mi WNW 8.1 mph - N/A   Clear
11:35 PM 33.8 °F 28.6 °F 26.6 °F 75% 29.86 in 10.0 mi NW 5.8 mph - N/A   Clear
11:55 PM 33.8 °F 28.6 °F 26.6 °F 75% 29.87 in 10.0 mi WNW 5.8 mph - N/A   Clear